www.pogodaiklimat.ru

АРХИВ ПОГОДЫ в Вашингтоне

Время (UTC), дата Ветер
(напр.,м/с)
 
Видим.   Явления Облачность Т
(С)
Тd
(С)
f
(%)
Тe
(С)
Тes
(С)
Комфортность

P
(гПа)

Po
(гПа)
Тmin
(С)
Tmax
(С)
R
(мм)
SD
(см)
08:52 20.11 СЗ  6
{9} 
16 км    8/8 1650 м
[средняя] 
+6.0  -6.0  42  +2  +2    1018.2  1017.7         
09:52 20.11 СЗ  16 км    5/5 1650 м
[средняя] 
+5.0  -6.1  44  0  0    1019.2  1018.7         
10:52 20.11 СЗ  16 км    5/2 1650 м
[средняя] 
+4.4  -6.7  44  +1  +1    1020.1  1019.7         
11:52 20.11 З  16 км    2/2 1650 м
[средняя] 
+4.0  -7.0  45  0  0    1021.0  1020.4  +3.9       
12:52 20.11 СЗ  16 км    2/2 1650 м
[верхняя] 
+4.4  -6.7  44  +1  +1    1022.7  1022.1         
13:52 20.11 З  16 км    ясно  +5.6  -6.7  41  +1  +1    1023.1  1022.8         
14:52 20.11 З  4
{8} 
16 км    ясно  +6.7  -7.2  36  +3  +4    1023.5  1023.1         
15:52 20.11 З  4
{9} 
16 км    ясно  +7.8  -6.7  35  +5  +7    1023.4  1022.8         
16:52 20.11 ЮЗ  16 км    2/0 7500 м
[верхняя] 
+8.9  -5.6  35  +6  +7    1022.9  1022.4         
17:52 20.11 З  16 км    2/0 7500 м
[верхняя] 
+10.0  -5.6  33  +7  +9    1022.4  1021.7         
18:52 20.11 З  16 км    2/0 7500 м
[верхняя] 
+10.6  -6.1  30  +7  +8    1022.1  1021.4         
19:52 20.11 З  16 км    2/0 7500 м
[верхняя] 
+11.1  -6.1  29  +8  +8    1021.8  1021.4         
20:52 20.11 ЮЗ  16 км    2/0 7500 м
[верхняя] 
+11.1  -6.1  29  +9  +10    1022.0  1021.4         
21:52 20.11 ЮЗ  16 км    2/0 7500 м
[верхняя] 
+10.0  -6.1  32  +8  +8    1022.0  1021.4         
22:52 20.11 Ю  16 км    2/0 7500 м
[верхняя] 
+8.9  -5.6  35  +7  +7    1022.1  1021.4         
23:52 20.11 Ю  16 км    2/0 7500 м
[верхняя] 
+7.2  -1.7  53  +4  +4    1022.0  1021.4         
00:52 21.11 Ю  16 км    ясно  +7.2  -3.3  47  +4  +4    1022.2  1021.7         
01:52 21.11 Ю  16 км    ясно  +6.1  -2.8  53  +3  +3    1022.4  1021.7         
02:52 21.11 ЮЗ  16 км    ясно  +6.1  -2.8  53  +4  +4    1022.2  1021.7         
03:52 21.11 ЮЗ  16 км    8/0 7500 м
[верхняя] 
+6.1  -2.2  55  +4  +4    1022.3  1021.7         
04:52 21.11 ЮЗ  16 км    8/0 7500 м
[верхняя] 
+5.6  -1.7  59  +3  +3    1022.2  1021.7         
05:52 21.11 ЮЗ  16 км    8/0 7500 м
[верхняя] 
+5.6  -1.1  62  +2  +2    1022.0  1021.4         
06:52 21.11 Ю  16 км    8/0 7500 м
[верхняя] 
+5.0  -0.6  67  +1  +1    1021.8  1021.4         
07:52 21.11 Ю  16 км    8/0 7500 м
[верхняя] 
+5.0  -1.1  65  +1  +1    1021.4  1020.7         
08:52 21.11 Ю  16 км    8/0 7500 м
[верхняя] 
+5.0  -1.7  62  0  0    1020.8  1020.4         
09:52 21.11 Ю  16 км    8/0 7500 м
[верхняя] 
+4.4  -1.1  67  0  0    1020.7  1020.1         
10:52 21.11 Ю  16 км    5/0 7500 м
[верхняя] 
+5.0  0.0  70  +1  +1    1020.7  1020.1         
11:52 21.11 Ю  16 км    5/0 4500 м
[средняя верхняя] 
+5.0  0.0  70  +1  +1    1020.9  1020.4  +4.4       
12:52 21.11 Ю  16 км    5/0 4500 м
[средняя верхняя] 
+5.6  -0.6  64  +3  +3    1021.1  1020.7         
13:52 21.11 Ю  6
{9} 
16 км    8/0 7500 м
[верхняя] 
+8.3  -0.6  53  +5  +5    1021.3  1020.7         
14:52 21.11 ЮЗ  16 км    8/0 7500 м
[верхняя] 
+10.0  -0.6  48  +7  +7    1021.1  1020.4         
15:52 21.11 Ю  16 км    10/0 7500 м
[верхняя] 
+11.1  0.0  46  +8  +9    1020.4  1019.7         
16:52 21.11 Ю  8
{10} 
16 км    10/0 7500 м
[верхняя] 
+15.0  0.0  36  +13  +14    1019.1  1018.7         
17:52 21.11 ЮЗ  16 км    10/0 7500 м
[верхняя] 
+15.6  +1.7  39  +14  +14    1017.9  1017.3         
18:52 21.11 Ю  7
{12} 
16 км    10/0 7500 м
[верхняя] 
+16.1  +3.3  42  +15  +15    1017.4  1016.7         
19:52 21.11 Ю  16 км    10/0 6600 м
[верхняя] 
+16.1  +4.4  46  +15  +17    1017.0  1016.3         
20:52 21.11 Ю  16 км    8/0 7200 м
[верхняя] 
+16.0  +6.0  51  +15  +16    1016.9  1016.3         
21:52 21.11 Ю  16 км    8/0 7200 м
[верхняя] 
+16.1  +6.1  51  +15  +15    1016.7  1016.0         
22:52 21.11 Ю  6
{10} 
16 км    8/0 7500 м
[верхняя] 
+15.6  +5.6  51  +14  +14    1017.3  1016.7         
23:52 21.11 Ю  16 км    8/0 7500 м
[верхняя] 
+13.9  +6.1  59  +12  +12    1017.5  1017.0         
00:52 22.11 Ю  16 км    8/5 1500 м
[верхняя] 
+12.2  +6.7  69  +10  +10    1018.0  1017.3         
01:52 22.11 Ю  16 км    8/2 1500 м
[средняя верхняя] 
+11.0  +7.0  76  +8  +8    1017.7  1017.3         
02:52 22.11 Ю  16 км    8/2 1650 м
[верхняя] 
+12.0  +7.0  71  +10  +10    1017.5  1017.0         
03:52 22.11 Ю  16 км    10/0 2100 м
[средняя верхняя] 
+12.0  +7.0  71  +10  +10    1016.7  1016.3         
04:52 22.11 ЮЗ  16 км    8/2 600 м
[средняя верхняя] 
+12.0  +7.0  71  +10  +10    1016.4  1016.0         
05:52 22.11 ЮЗ  16 км    10/2 900 м
[средняя] 
+11.0  +8.0  82  +9  +9    1015.5  1015.0  +11.1  +13.9     
06:52 22.11 Ю  16 км    10/0 2700 м
[средняя] 
+11.7  +7.8  77  +10  +10    1014.5  1014.0         
07:52 22.11 Ю  16 км    8/0 2250 м
[средняя верхняя] 
+12.0  +8.0  76  +10  +10    1013.9  1013.3         

 

Местоположение метеостанции Reagan National Airport: широта 38.8483 долгота -77.0342 высота над уровнем моря 4 м.

В архиве по умолчанию представлена погода в Вашингтоне за последние 1-2 суток. Обновление информации о фактической погоде в базе происходит ежечасно! Архивные данные за месяц целиком и за предыдущие месяцы Вы можете получить, выбрав интересующий диапазон дат из раскрывающегося списка и нажав кнопку "Ввод!".

Внимание! Архив погоды МЕТАР в базе сайта в настоящее время начинается c 1 января 2013 г. Нет смысла пытаться выбрать более раннюю дату.

Внимание! Время в таблицах - всемирное. Для получения местного времени необходимо прибавить поправку, которая в Вашингтоне равна -5 ч.

Ветер - указаны скорость ветра в м/с и направление, откуда дует ветер: С - северный, СВ - северо-восточный, В - восточный, ЮВ - юго-восточный, Ю - южный, ЮЗ - юго-западный, З - западный, СЗ - северо-западный.
Видимость - горизонтальная дальность видимости в метрах или километрах. При видимости от 1 до 10 км при отсутствии осадков обычно наблюдается дымка, при ухудшении видимости до 1 км и менее - туман. В сухую погоду видимость может ухудшаться дымом, пылью или мглою.
Атмосферные явления - указаны явления, наблюдавшиеся в указанный момент времени.
Облачность - указаны через наклонную черту верхняя и нижняя облачность в баллах и высота нижней границы облаков в метрах. Внимание: облачность, как и прочие метеорологические величины в США измеряются автоматическими метеостанциями. Указанные значения в баллах носят условный характер и показывают процент времени, в течение которого, в среднем, лазерный луч высотомера отражался от облаков обратно.
T - Температура воздуха - температура, измеренная на высоте 2 м над землей.
Td - Температура точки росы - температура, при понижении до которой содержащийся в воздухе водяной пар достигнет насыщения.
f - Относительная влажность воздуха - влажноcть воздуха, измеренная на высоте 2 м над землей.
Te - Эффективная температура - температура, которую ощущает одетый по сезону человек в тени. Характеристика душности погоды. При расчете учитывается влияние влажности воздуха и скорости ветра на теплоощущения человека.
Tes - Эффективная температура на солнце - температура, которую ощущает человек, с поправкой на солнечный нагрев. Характеристика знойности погоды. Зависит от высоты солнца над горизонтом, облачности и скорости ветра. Ночью, в пасмурную погоду, а также при ветре 12 м/с и более поправка равна нулю.
P - Атмосферное давление - приведенное к уровню моря атмосферное давление.
Po - Атмосферное давление - измеренное на уровне метеостанции атмосферное давление.
Tmin - Минимальная температура - минимум температуры воздуха на высоте 2 м над землей.
Tmax - Максимальная температура - максимум температуры воздуха на высоте 2 м над землей.
R - Количество осадков - Количество выпавших осадков за 3 или 6 часов, мм.
SD - Снежный покров - Высота снежного покрова, см.